Погода в Вейхерово

Польша     54°36′44″N   18°11′40″E
темп.,
°C
ветер,
м/с
пор.,
м/с
влажн.,
%
обл.,
%
осадки,
мм/ч
давл.,
гПа
погр.,
м
27 февраля, сб
сб2701:00+2зсз612931 0.0 1025354
04:00+1зсз410934 0.0 1025294
07:00+1сз49932 0.0 1028256
10:00+4сз59810 0.0 1030619
13:00+5сз69710 0.0 1032808
16:00+4сз47750 0.0 1032556
19:00+1зсз48890 0.0 1033222
22:00+1з498151 0.0 1033217
28 февраля, вс
вс2801:00+2з598475 0.0 1032269
04:00+2з5129641 0.0 1031345
07:00+2з7139557 0.0 1031465
10:00+3зсз71193100 0.0 1030495
13:00+4сз698693 0.0 1031404
16:00+4зсз588715 0.0 1031288
19:00+2зсз489617 0.0 1032213
22:00+1зсз369613 0.0 1032130
1 марта, пн
пн101:00+1зсз23917 0.0 103342
04:00+2з33880 0.0 103244
07:00+1з47930 0.0 1033138
10:00+6з58760 0.0 1033251
13:00+8з510680 0.0 1032405
16:00+7з712720 0.0 1031454
19:00+4з714760 0.0 1031370
22:00+3з613890 0.0 1031337
2 марта, вт
вт201:00+2зсз512920 0.0 1031310
04:00+1з410940 0.0 1030229
07:00+1з410962 0.0 1031228
10:00+5зсз588517 0.0 1031394
13:00+7з577829 0.0 1031543
16:00+6зсз588151 0.0 1030558
19:00+4зсз589068 0.0 1030430
22:00+3зсз479397 0.0 1031347
3 марта, ср
ср301:00+2зсз259785 0.0 1031150
04:00+1з239837 0.0 103038
07:00+1з239730 0.0 103053
10:00+5з238111 0.0 1030247
13:00+9з23636 0.0 1028466
16:00+9з24630 0.0 1026437
19:00+5ююз23753 0.0 102428
22:00+4юз378510 0.0 1022137